GFSNW_sfc_temp_003.txt.gz
Temp
55 55 55 54 53 52 56 60 56 80 83 59 59 56 64 63 72 77 75 75 71 68 70 67 69 72 78 87 86 75 77 65 58 67 80 83 76 69 64 54 54 55 57 57
55 55 55 54 53 53 49 53 62 80 79 54 58 63 68 71 71 72 73 72 74 73 67 60 69 74 85 87 82 72 68 61 53 59 67 73 70 73 68 63 59 54 51 53
55 55 55 54 54 53 51 55 56 66 70 68 62 60 63 66 77 74 77 74 73 68 65 67 65 72 83 86 79 73 74 63 59 56 61 68 67 73 73 63 54 56 58 59
55 55 55 55 54 54 52 58 58 61 56 61 61 62 64 63 64 74 76 68 70 67 58 62 64 72 75 82 76 75 70 58 60 67 73 77 76 75 77 67 65 59 62 64
55 55 55 55 53 53 55 55 54 59 57 60 60 59 60 64 68 69 68 66 72 71 60 64 63 68 64 65 74 66 69 59 61 62 74 75 74 77 77 79 76 70 67 58
55 55 55 55 53 53 56 59 59 55 54 57 58 60 63 67 69 72 75 73 70 68 71 73 72 72 71 68 63 64 63 60 57 53 67 69 61 70 73 71 72 68 62 63
55 55 55 55 53 52 52 56 54 51 50 57 60 64 65 65 65 64 72 74 67 73 79 77 75 74 71 73 71 68 63 60 57 53 58 48 65 71 77 73 75 70 67 68
55 55 55 55 54 53 51 57 53 50 47 56 59 59 59 63 62 63 67 75 72 74 70 61 58 59 60 66 70 68 67 61 55 51 51 61 69 71 70 68 67 74 70 69
54 55 55 55 54 53 52 55 57 52 47 53 58 57 60 56 54 59 66 68 73 72 62 59 49 49 55 56 62 68 66 62 58 54 46 48 62 74 82 77 57 73 71 66
54 55 55 55 55 53 51 53 57 52 47 56 57 55 54 62 59 56 59 59 63 70 57 53 52 54 63 55 54 54 57 55 54 54 52 60 72 78 81 58 55 68 70 68
54 54 54 55 55 54 52 51 57 51 47 51 58 62 56 57 57 51 57 56 56 60 54 54 55 54 58 58 60 59 55 53 52 54 51 49 73 76 65 62 65 65 69 64
53 54 54 54 54 54 53 50 58 57 47 49 57 58 61 62 63 55 57 51 53 55 55 56 57 56 55 55 49 61 51 52 51 54 52 59 64 67 70 70 65 64 63 63
53 53 54 53 53 53 52 49 52 52 48 52 54 57 66 69 69 72 54 53 56 55 56 57 58 53 55 48 50 54 55 60 54 56 58 59 62 64 64 68 69 69 69 68
53 53 53 54 53 52 52 48 54 52 48 45 57 72 67 74 74 73 71 65 61 62 59 54 56 55 60 55 55 53 58 58 55 59 59 60 62 62 63 63 68 71 71 70
53 53 53 53 53 52 52 53 55 56 46 42 48 58 67 72 69 69 68 65 61 61 57 57 53 60 58 59 59 55 57 56 55 51 59 56 57 60 63 61 65 66 66 65
52 52 52 52 52 52 50 50 58 59 55 46 43 61 64 69 68 66 63 63 61 61 58 58 61 64 57 52 51 59 63 62 61 57 61 61 61 61 64 63 66 67 66 64
52 52 52 52 52 51 50 48 53 54 57 46 43 51 65 69 66 64 62 63 61 61 59 57 58 59 59 54 49 61 62 63 63 62 59 59 62 59 64 67 69 68 67 64
52 51 51 52 52 50 51 58 54 54 52 49 42 50 55 63 60 58 63 59 61 58 58 59 57 58 57 49 57 61 64 65 63 62 63 61 59 61 64 66 66 63 61 61
51 51 52 53 52 52 55 57 57 57 52 43 48 47 44 64 61 60 61 60 54 62 56 57 58 54 49 54 57 60 62 60 63 64 64 63 59 58 61 62 62 61 59 61
51 51 50 45 54 57 57 53 48 48 50 51 47 56 51 60 57 54 52 58 54 50 57 62 56 54 59 61 62 61 64 64 66 61 58 57 56 57 59 59 63 61 61 64
54 51 47 56 57 57 52 45 44 48 45 52 54 55 52 61 51 50 55 49 53 47 53 53 51 52 57 63 62 63 64 65 66 65 64 64 61 60 60 60 62 62 62 61
47 46 51 55 55 50 45 44 49 49 46 53 51 52 55 56 58 51 51 49 51 46 58 54 49 55 59 63 64 64 65 66 66 67 63 69 62 63 62 63 63 62 63 63
54 48 48 50 48 36 41 41 46 46 52 53 52 50 53 54 55 50 48 46 46 58 50 51 49 52 58 58 63 66 68 68 67 67 67 65 66 64 62 62 60 62 60 61
48 45 33 40 41 46 50 48 48 52 54 54 54 52 50 52 48 50 45 50 51 45 45 46 49 53 56 58 61 63 62 67 68 66 66 69 64 65 63 63 63 61 58 59
49 52 37 45 53 56 57 58 56 58 56 56 54 54 51 49 47 48 48 46 45 45 42 46 51 54 54 55 57 58 56 63 65 65 68 64 63 62 61 60 61 60 60 56
53 51 49 55 54 54 56 56 54 58 56 57 53 47 43 44 46 45 45 46 41 42 47 50 53 54 55 56 59 56 53 54 60 60 59 59 57 57 56 58 58 59 59 57
49 50 58 57 58 54 54 56 56 60 55 47 47 39 38 44 42 45 47 42 45 50 51 53 54 54 55 56 58 59 57 57 56 56 56 56 56 56 54 51 53 54 54 54

GFSNW_sfc_temp_006.txt.gz
Temp
55 55 55 54 53 52 48 42 47 65 69 51 46 48 59 61 66 69 67 66 63 63 62 58 60 63 68 79 82 67 69 58 55 63 72 77 71 66 59 51 50 49 50 52
55 55 55 54 53 52 45 38 46 64 63 45 44 51 61 65 65 65 65 64 66 67 59 55 61 67 77 79 74 68 67 55 50 58 63 68 65 67 61 55 51 50 48 51
55 55 55 54 53 53 43 41 44 52 56 53 49 48 54 57 69 67 69 66 65 61 57 57 60 64 75 79 78 70 68 54 57 54 58 62 64 70 67 58 50 52 53 53
55 55 55 54 53 53 45 44 45 48 42 48 49 48 55 56 57 66 65 63 64 61 50 55 57 63 67 74 72 71 65 56 57 61 66 68 67 68 68 59 61 58 59 59
55 55 55 54 53 52 49 42 41 45 43 48 50 48 50 56 61 59 60 57 66 65 55 59 57 59 55 62 67 62 61 57 55 57 67 69 66 70 69 74 74 64 61 56
55 55 55 54 52 50 41 46 46 43 44 46 46 48 53 57 58 61 64 64 62 61 64 66 65 64 62 62 58 61 58 56 52 49 60 63 56 65 69 69 71 69 58 62
55 55 55 55 53 50 40 42 42 39 39 44 47 54 57 57 57 53 64 64 58 67 70 69 62 58 59 65 61 60 58 54 51 49 52 43 60 68 71 69 68 68 64 62
54 55 55 55 54 52 40 42 42 38 35 44 49 52 53 54 56 56 60 64 62 64 63 56 53 52 57 59 63 60 61 55 51 49 46 55 64 68 67 63 63 68 63 64
54 54 55 55 54 52 42 41 45 41 36 40 50 49 51 46 46 50 57 64 63 60 54 52 43 46 51 52 56 57 59 57 54 48 45 45 58 70 76 70 55 69 66 64
54 54 54 55 54 53 44 41 45 41 35 42 46 45 45 50 47 45 50 55 54 57 50 47 45 47 56 50 48 48 50 50 50 48 47 54 63 68 73 56 56 65 66 64
53 54 54 54 54 54 46 41 44 42 35 39 48 54 48 48 47 43 48 49 49 48 45 47 47 48 51 49 50 46 48 46 46 47 45 46 62 66 59 58 61 64 62 60
53 53 54 54 54 53 51 37 47 47 38 39 47 51 54 53 54 48 48 47 47 50 44 46 46 47 47 45 44 52 47 49 47 50 48 57 59 59 61 64 60 60 60 61
53 53 53 54 54 53 52 40 40 40 36 39 39 46 56 55 56 58 47 51 54 52 50 46 46 47 47 43 46 48 53 54 49 50 54 55 58 60 63 63 63 64 63 62
53 53 53 54 53 53 52 47 41 41 37 33 42 59 53 60 57 58 58 57 56 53 52 46 45 48 53 48 50 48 52 53 51 50 54 56 58 60 60 62 63 64 65 63
53 53 53 53 52 52 50 41 43 44 39 33 36 49 54 57 58 60 60 54 53 48 47 46 42 53 50 51 50 48 51 51 48 47 55 54 55 58 62 61 61 63 63 60
52 52 52 52 52 52 41 39 46 47 51 42 33 46 51 57 58 59 56 55 53 52 48 48 52 56 52 45 48 52 56 57 56 54 59 58 60 61 63 62 62 63 63 61
52 52 51 51 51 43 39 42 45 49 49 43 37 37 51 59 56 53 52 54 53 52 53 52 54 54 52 46 43 54 55 55 58 58 58 57 60 58 61 64 64 61 61 59
51 51 51 51 52 48 41 47 52 48 47 47 36 38 45 55 51 52 51 50 52 52 54 54 53 50 48 44 51 56 58 59 58 59 60 57 57 60 61 62 62 58 57 57
51 51 51 47 43 40 45 58 54 46 44 41 41 38 38 54 54 48 48 47 43 51 47 52 51 45 43 49 52 53 58 57 58 59 58 59 57 56 58 59 59 56 55 56
51 46 44 44 46 57 54 47 44 45 44 44 36 41 40 48 46 44 44 46 44 43 49 51 47 45 50 53 56 58 59 59 58 55 52 54 53 56 56 58 58 59 58 58
46 44 45 49 56 46 46 41 40 39 41 40 40 42 41 49 42 41 44 41 42 40 46 46 43 42 50 55 55 56 57 60 61 60 59 58 56 57 56 56 60 58 59 57
40 41 43 42 43 43 40 39 40 40 40 48 47 49 46 47 48 43 43 41 42 39 48 45 40 44 48 51 54 57 55 59 61 62 61 63 58 57 56 56 56 58 59 59
43 40 37 40 39 29 37 36 40 42 47 48 48 46 45 45 46 45 43 41 39 47 43 43 43 46 52 51 53 56 58 58 62 61 62 65 58 58 59 58 56 57 58 61
39 36 26 31 29 37 43 42 41 48 50 49 49 49 43 45 42 44 44 45 45 40 43 41 47 49 51 50 54 54 53 55 59 61 62 60 59 60 59 59 59 58 57 59
38 44 28 36 44 47 48 46 45 51 50 49 44 43 43 42 41 43 45 42 41 41 38 43 48 50 51 52 54 53 52 51 54 57 59 58 57 57 56 57 56 57 57 56
41 41 41 44 42 42 46 43 43 47 48 46 43 40 41 42 42 41 41 43 40 42 46 48 48 48 50 52 52 53 52 54 54 54 55 56 58 56 54 55 54 54 55 53
43 39 44 46 44 46 42 43 43 47 44 39 39 36 38 43 40 40 45 41 43 47 47 45 46 47 49 51 53 54 54 52 52 52 52 52 53 54 53 51 53 54 55 55

GFSNW_sfc_temp_009.txt.gz
Temp
55 55 54 54 53 52 46 40 49 60 59 49 43 46 54 57 60 63 62 61 61 57 59 56 57 59 65 73 71 62 62 54 53 60 68 72 65 62 56 50 49 45 47 51
55 55 54 54 53 52 46 38 41 58 60 43 42 49 57 59 58 59 58 60 63 62 56 53 59 62 72 72 68 62 62 53 51 56 59 64 61 61 55 52 49 46 46 51
55 55 54 54 53 52 42 42 45 50 51 46 46 46 52 55 66 62 64 63 62 59 55 56 56 59 70 72 72 68 66 51 55 56 56 60 60 63 62 55 49 48 50 53
55 55 55 54 53 52 45 43 41 43 41 46 44 44 52 55 56 61 60 57 58 55 49 52 55 58 62 69 69 65 61 53 54 56 63 65 65 65 63 59 57 55 57 57
55 55 55 54 53 51 45 40 40 41 40 43 45 45 45 52 54 54 55 53 59 57 52 56 56 55 52 58 64 60 57 54 52 54 64 64 63 66 66 66 65 59 58 57
55 55 55 54 52 48 40 41 42 41 43 42 43 43 49 53 54 57 59 59 55 56 58 59 63 61 61 61 54 56 55 52 50 47 56 59 54 62 65 64 67 66 59 61
55 55 55 55 52 48 38 39 39 38 39 41 44 51 53 53 54 51 59 59 53 61 65 63 59 56 56 60 59 57 54 50 48 48 50 42 58 65 68 66 65 65 63 59
54 54 55 55 53 52 39 39 39 37 34 40 45 48 49 51 51 52 57 61 61 60 55 54 51 51 52 57 64 57 57 51 47 47 45 52 60 64 63 60 60 63 59 60
54 54 54 54 54 52 40 39 41 39 35 38 46 44 47 43 42 47 54 60 58 56 51 50 41 44 49 50 53 52 54 53 52 46 44 44 54 64 68 66 54 64 62 60
53 53 54 54 54 52 41 39 40 38 34 38 41 42 43 46 43 42 46 52 51 52 45 46 44 45 52 48 48 47 47 47 48 46 45 52 58 61 64 52 54 61 63 61
53 53 53 54 54 54 44 39 40 39 33 36 44 50 45 46 44 41 46 47 48 46 43 43 43 44 47 46 47 44 46 45 44 44 44 45 60 62 59 56 59 60 61 59
53 53 54 54 54 54 49 36 42 42 36 37 43 47 51 51 50 45 44 44 45 47 42 42 42 44 45 43 42 50 45 48 45 47 47 55 59 60 59 61 59 57 59 59
53 53 53 53 54 53 52 39 37 37 34 36 36 44 50 47 51 54 44 45 50 48 49 45 43 42 44 42 44 46 50 51 49 48 53 57 58 59 61 61 60 61 62 61
53 53 53 53 53 52 53 46 38 37 34 34 39 53 48 55 50 52 57 51 50 49 48 47 43 41 47 44 47 46 50 50 48 48 51 54 58 59 58 61 62 62 61 60
53 53 53 53 52 52 50 39 40 40 37 32 34 44 49 52 51 52 52 49 47 46 44 44 45 44 46 47 46 46 49 50 47 47 53 53 54 58 61 60 60 59 58 57
52 52 52 52 52 52 40 38 42 43 45 40 32 41 45 52 52 51 50 48 48 48 46 46 46 53 48 42 41 50 52 54 54 54 56 56 58 59 61 59 62 61 59 57
52 51 51 51 51 41 40 40 43 48 49 42 35 35 46 53 51 50 50 50 49 49 47 47 50 49 50 44 40 50 57 58 59 58 58 55 57 56 62 62 61 59 59 57
51 51 51 51 51 47 40 44 50 46 41 46 35 35 45 50 46 46 46 46 45 46 48 50 47 47 46 43 53 56 57 57 57 60 58 57 54 56 58 59 60 56 54 55
51 51 51 46 42 38 43 56 52 44 43 40 40 37 38 50 48 45 48 45 41 46 44 48 48 43 42 50 54 56 56 55 57 57 57 57 56 57 57 57 57 55 53 54
51 46 43 43 44 55 53 45 44 44 44 43 34 37 41 45 43 42 42 43 41 38 43 46 43 42 48 51 53 56 56 57 56 53 50 53 53 55 55 55 56 56 55 55
45 39 40 43 53 44 46 41 40 40 41 40 37 38 38 46 41 40 41 40 41 39 43 44 39 38 48 52 50 52 53 54 56 58 59 57 56 55 55 55 55 55 55 54
40 41 43 40 40 42 38 39 42 39 39 45 45 47 42 44 45 41 41 40 40 37 44 45 39 46 47 49 51 52 52 53 54 57 58 59 57 56 55 55 54 55 56 55
41 38 35 38 38 28 35 36 40 41 46 48 47 45 43 44 44 42 41 39 38 45 40 40 45 49 49 48 50 52 54 55 54 56 59 60 56 56 56 55 56 56 55 56
37 34 24 30 28 34 40 39 39 46 48 46 48 46 41 43 39 43 43 46 43 38 38 39 44 44 47 48 51 51 51 53 52 53 58 57 55 55 57 58 57 56 55 55
36 38 27 35 43 45 45 44 42 49 44 46 43 41 41 40 40 41 44 41 40 41 38 43 47 49 49 49 50 50 51 52 52 52 55 54 55 53 52 53 54 54 54 54
37 37 38 41 40 42 46 43 41 43 41 41 40 36 37 42 41 40 39 40 40 41 45 48 48 46 46 47 48 51 53 51 52 51 54 55 55 53 52 53 53 54 54 53
41 40 40 39 39 39 40 40 42 43 41 38 37 33 38 43 40 39 44 41 42 45 47 48 46 47 48 48 50 54 53 51 52 52 53 52 53 55 53 51 52 53 53 53

GFSNW_sfc_temp_015.txt.gz
Temp
55 55 54 54 53 51 51 55 57 66 66 61 55 58 58 57 66 69 68 67 65 65 65 66 67 68 71 76 76 71 74 70 64 70 75 77 76 73 72 68 60 63 65 69
55 55 54 53 52 51 48 54 57 66 66 55 55 57 61 64 65 65 66 65 67 68 65 63 66 68 75 76 75 72 71 66 63 66 72 73 73 72 71 67 67 61 63 69
54 55 55 53 52 52 53 56 56 61 60 57 56 55 58 60 67 65 67 66 68 65 63 65 63 68 73 75 75 66 72 65 66 66 69 73 69 70 70 72 67 66 69 72
55 55 55 54 53 52 54 54 50 51 54 55 55 56 57 57 58 64 65 63 62 61 60 62 63 66 70 75 69 71 73 65 65 70 70 72 74 73 70 70 72 71 72 70
55 54 54 54 52 51 53 53 53 53 53 50 54 52 53 56 58 60 60 61 62 61 60 62 61 62 66 68 73 70 66 66 64 67 69 71 71 75 73 73 71 71 72 72
54 54 55 53 52 50 51 50 51 51 47 51 54 54 55 56 58 62 64 61 61 60 62 64 66 66 66 66 62 66 66 66 64 64 66 69 64 72 73 75 76 77 71 77
54 54 54 54 52 48 48 47 48 52 51 53 54 54 55 56 56 56 61 63 60 64 67 67 64 62 62 63 64 66 64 62 63 65 64 56 71 74 76 75 76 77 75 74
53 54 54 54 53 50 50 48 49 49 50 50 51 52 54 56 57 56 58 63 64 66 64 63 60 62 63 66 68 65 66 65 63 60 62 65 69 71 71 73 73 75 74 69
53 54 54 54 53 50 51 48 47 50 49 51 50 52 53 55 55 57 58 64 64 64 64 61 54 54 60 59 62 64 64 63 65 59 58 55 70 70 70 70 69 73 73 70
53 53 54 54 54 50 50 49 46 50 47 52 50 52 54 56 53 55 55 58 59 61 62 58 57 58 61 58 58 58 60 60 61 62 60 65 69 68 70 64 68 72 72 72
54 54 53 53 54 53 51 49 48 48 46 49 50 53 53 55 55 54 55 56 57 59 56 57 59 57 59 58 58 59 60 59 59 60 58 56 66 69 66 65 68 69 70 70
53 54 53 53 53 54 50 47 50 49 46 49 48 53 55 56 57 56 54 53 53 56 56 56 56 56 58 53 55 59 57 61 63 61 65 62 66 66 67 65 63 69 69 69
53 54 53 54 53 52 52 49 48 48 44 48 48 52 56 55 55 62 54 54 55 56 57 58 57 51 57 53 57 56 59 60 59 59 63 63 65 67 67 67 67 70 71 70
53 53 53 53 53 52 52 49 49 48 43 42 53 58 55 58 56 56 58 57 58 57 58 55 57 56 57 58 56 56 63 60 58 60 64 64 67 66 66 66 66 67 69 68
52 52 53 53 52 52 51 50 51 51 46 41 47 54 57 58 56 55 56 55 55 59 57 54 54 57 57 60 59 59 62 60 59 61 63 63 65 65 66 66 65 66 66 62
52 52 52 52 51 51 49 48 49 50 50 43 44 54 53 57 56 54 53 54 55 58 58 58 60 57 56 53 55 58 61 64 64 61 64 65 66 66 67 66 66 66 66 63
51 51 51 51 51 48 47 48 50 48 51 46 45 50 58 57 57 57 56 56 59 59 60 57 60 60 60 55 51 58 60 63 64 65 64 64 66 64 67 68 66 64 66 66
51 51 51 51 50 49 50 55 50 50 49 49 41 48 54 59 58 56 58 56 57 57 60 59 58 59 58 52 58 59 59 62 66 67 67 66 67 67 66 65 66 66 64 63
51 51 51 50 48 48 49 54 53 53 49 43 46 46 46 59 57 54 54 55 53 57 55 57 59 56 51 56 55 56 57 56 59 65 67 67 66 62 64 65 61 64 63 64
50 51 50 45 49 54 53 50 44 46 49 47 41 49 49 55 56 55 53 52 51 48 56 58 54 54 56 57 57 58 58 59 60 62 63 66 66 66 64 65 67 67 66 66
50 47 46 50 51 52 48 42 42 44 42 46 49 49 50 56 52 53 53 51 51 46 50 50 50 48 53 57 58 59 60 60 61 62 63 64 65 67 67 67 67 68 67 66
45 45 48 48 49 45 41 40 43 43 43 50 50 51 51 56 55 53 51 49 49 44 54 48 45 50 55 56 57 58 59 59 59 62 62 64 65 66 68 68 68 67 67 68
48 44 44 46 44 35 37 36 41 40 46 50 51 47 52 52 54 50 49 44 46 55 47 47 47 51 56 56 56 58 59 58 59 60 63 64 64 66 68 67 68 67 65 66
44 41 33 40 37 42 45 44 46 49 48 50 50 50 50 50 49 50 44 50 50 44 43 41 45 49 53 54 54 56 56 56 57 59 60 61 62 66 68 67 68 66 64 64
42 43 34 41 49 50 48 50 48 51 51 52 52 52 49 50 47 49 47 43 42 43 37 41 46 48 50 51 54 55 55 55 56 58 57 59 63 64 63 64 65 65 64 63
42 41 43 48 46 49 49 50 47 50 53 53 51 48 45 46 44 42 43 43 41 40 44 49 52 51 50 51 53 53 54 54 55 56 57 60 62 57 57 59 61 61 62 61
42 46 49 48 48 47 49 50 51 51 53 48 47 41 42 49 41 42 46 44 44 46 50 52 51 49 49 50 52 51 53 54 55 55 57 56 56 58 57 54 56 58 59 59

GFSNW_sfc_temp_021.txt.gz
Temp
55 55 55 54 53 52 58 78 73 85 88 73 78 75 81 64 82 84 83 81 80 80 81 80 81 82 87 92 93 85 90 85 76 81 92 93 90 85 84 75 71 78 76 71
55 55 55 54 53 52 64 75 80 86 85 70 76 80 79 79 81 81 81 81 82 82 77 74 82 83 89 89 89 86 89 80 72 75 85 89 83 87 87 85 81 72 70 74
55 55 55 54 53 53 61 74 70 77 79 82 73 75 72 73 82 82 83 82 82 79 78 81 78 81 84 87 90 72 81 81 76 74 72 81 78 83 86 83 75 76 79 81
55 55 55 54 53 53 63 78 74 74 69 74 75 76 75 74 72 80 81 78 78 78 74 77 75 83 84 86 73 83 85 73 80 82 85 86 84 83 85 81 82 76 80 70
55 55 55 54 53 52 70 69 71 78 77 71 72 64 71 72 77 76 74 74 80 80 74 77 76 82 81 81 86 84 85 73 78 77 84 85 81 84 84 85 84 84 85 77
55 55 55 54 52 55 75 75 78 73 63 71 70 73 73 73 77 77 80 80 80 76 78 84 84 84 82 82 79 79 79 76 73 69 80 81 74 81 83 85 88 86 80 86
55 55 55 54 53 53 67 70 70 70 69 72 73 73 73 72 72 71 78 77 75 77 83 83 84 85 84 83 81 83 74 73 74 71 74 63 81 91 90 86 88 90 90 88
55 55 55 55 54 53 66 71 69 69 67 76 72 70 71 74 72 70 72 77 79 81 79 73 69 72 72 77 81 80 81 74 71 67 67 75 81 85 85 83 82 92 90 91
55 55 55 55 54 53 64 70 69 69 66 70 71 71 72 70 71 72 73 79 80 78 76 72 61 62 68 68 73 82 80 76 71 70 63 60 78 88 92 89 74 91 87 90
54 55 55 55 55 53 58 70 67 67 65 74 70 69 69 74 73 72 75 75 73 78 69 67 67 68 76 68 67 68 71 70 66 67 65 71 84 87 89 71 74 85 87 88
54 54 54 55 55 54 57 69 67 64 66 72 70 71 69 72 71 68 72 72 72 73 65 67 70 70 74 72 74 72 68 65 66 68 65 61 85 84 76 75 81 82 85 85
54 54 54 54 54 54 55 67 73 71 62 69 71 72 74 72 72 69 74 70 70 78 71 72 74 71 74 68 64 77 67 75 72 73 73 78 82 79 79 81 80 80 82 85
54 54 54 54 54 53 54 62 67 67 64 70 71 70 76 79 77 80 66 75 71 71 73 72 74 67 76 67 69 72 76 81 73 74 80 78 79 82 80 80 80 83 85 85
53 53 54 54 53 53 53 62 67 66 65 62 67 77 71 76 78 76 75 72 73 73 75 71 71 69 77 71 73 72 76 74 74 74 76 79 79 78 78 78 80 82 85 84
53 53 53 53 53 52 56 64 69 71 61 60 67 73 75 76 74 72 74 71 68 71 70 69 68 76 72 74 76 73 78 72 64 67 73 72 72 77 79 78 78 80 78 76
52 52 52 52 52 52 59 62 70 75 69 60 63 74 70 73 72 71 70 72 70 71 71 71 75 75 71 66 67 75 77 77 78 72 76 76 77 78 80 78 79 80 77 74
52 52 52 52 51 58 56 54 58 56 67 61 63 65 72 74 73 73 72 72 72 72 71 69 71 73 70 66 64 70 69 75 76 76 76 74 78 77 81 81 79 76 77 72
52 52 51 51 51 53 57 64 54 57 62 65 59 60 67 74 69 67 75 70 71 71 69 72 70 72 70 61 69 74 73 74 74 76 78 78 81 80 80 80 79 78 72 70
51 51 51 58 57 55 59 55 55 65 60 58 63 59 53 74 66 67 68 73 65 74 67 68 70 67 61 67 69 71 74 71 71 74 76 78 77 71 76 78 78 76 74 69
51 54 56 50 58 53 56 58 55 57 60 63 60 73 58 71 69 65 62 66 62 57 62 73 64 65 72 74 74 73 72 72 74 70 70 74 72 72 74 74 74 78 77 73
58 57 52 61 54 62 55 51 53 54 54 63 66 69 60 74 58 59 67 57 62 54 60 62 60 62 69 74 71 73 73 73 74 74 74 76 76 69 72 70 74 72 77 75
53 54 60 68 59 51 48 51 58 54 51 64 60 64 69 62 71 58 60 59 63 55 68 61 58 55 65 68 66 65 71 73 73 74 73 75 76 78 78 74 76 76 78 75
62 57 56 53 50 38 44 46 53 50 60 62 62 57 68 68 70 61 61 55 57 70 56 57 55 60 63 63 65 64 65 69 73 73 74 75 76 77 78 77 79 78 71 79
55 52 35 48 48 53 60 60 55 65 65 65 62 58 62 66 57 60 53 62 63 52 51 50 60 60 62 64 66 65 63 64 66 69 73 73 74 76 77 79 81 79 72 78
54 57 40 52 60 64 58 61 61 63 65 61 61 62 60 58 55 59 59 53 50 51 48 56 61 61 60 61 64 63 62 62 63 67 69 70 71 73 74 77 80 81 80 79
57 56 53 60 56 56 62 64 57 69 65 63 61 55 52 52 56 52 51 51 51 52 61 63 63 60 60 60 61 58 56 57 57 61 65 66 68 70 71 78 79 79 78 74
53 56 62 60 60 58 60 62 60 68 60 56 55 47 50 57 53 51 60 53 55 56 59 61 59 57 57 57 54 54 56 55 57 58 61 62 66 70 69 66 69 72 71 69

GFSNW_sfc_temp_024.txt.gz
Temp
55 55 55 54 53 52 60 73 69 86 91 71 74 68 75 74 85 87 84 84 83 81 84 83 82 82 87 95 95 86 90 84 75 81 91 93 89 84 83 73 69 75 73 72
55 55 55 54 53 52 59 69 77 87 85 65 70 76 79 83 83 82 82 81 84 85 79 75 81 84 90 93 91 80 86 79 71 74 83 89 84 86 85 83 79 70 66 54
55 55 55 54 54 53 58 71 70 75 77 78 72 72 75 78 84 83 85 83 86 82 77 80 77 82 87 89 88 75 82 80 75 71 74 77 77 82 84 81 73 74 76 73
55 55 55 55 54 53 60 72 74 77 69 71 73 75 77 75 75 82 84 80 81 78 74 76 75 82 86 87 77 85 84 72 77 80 83 84 83 82 84 80 81 74 78 75
55 55 55 55 54 52 67 70 70 74 75 75 74 68 72 74 78 79 76 75 81 81 75 78 77 80 81 80 86 81 84 72 76 73 81 83 80 84 84 84 84 83 83 80
55 55 55 55 53 55 73 75 77 73 66 73 70 71 72 73 78 82 83 80 79 79 80 85 84 85 84 82 77 78 76 75 71 66 78 79 72 80 83 84 86 85 78 80
55 55 55 55 54 53 62 71 70 68 67 73 73 75 77 76 77 75 80 80 77 78 86 86 85 84 82 83 81 82 73 72 72 68 72 60 78 87 88 82 87 89 88 76
55 55 55 55 54 53 61 70 69 68 65 74 75 74 74 76 75 74 75 79 80 82 80 74 68 70 72 75 80 79 80 73 68 64 65 72 79 78 79 80 81 80 77 73
55 55 55 55 55 53 61 69 71 68 65 68 73 72 74 71 72 72 75 83 82 79 73 71 60 60 67 66 71 81 80 76 70 67 61 59 75 86 90 88 74 81 79 65
55 55 55 55 55 54 57 66 70 67 64 74 71 69 67 76 74 72 76 76 74 77 69 65 64 65 74 66 66 68 70 70 65 65 62 69 82 88 77 53 67 83 79 75
54 55 55 55 55 54 56 65 71 66 64 71 73 74 69 72 73 68 70 74 72 71 62 64 67 68 73 71 73 72 69 65 65 67 62 59 87 85 72 73 81 82 83 79
54 55 55 55 54 54 54 64 75 73 64 68 75 76 77 75 74 69 72 71 70 74 70 71 71 67 72 70 65 78 67 73 70 71 70 79 82 77 79 80 80 81 82 84
54 54 55 54 54 54 54 60 67 69 65 69 72 72 79 82 80 82 66 73 71 72 73 70 71 66 74 65 69 72 77 81 73 73 77 77 79 79 80 80 78 83 86 86
53 54 54 54 54 53 53 59 68 68 66 61 69 80 73 80 81 79 78 73 73 72 74 70 69 67 77 71 71 70 70 74 72 73 75 66 73 78 78 80 81 84 82 83
53 53 53 53 53 52 55 64 69 73 62 58 65 77 79 79 77 75 76 72 68 71 69 68 66 74 73 75 75 72 73 68 59 60 70 70 71 76 79 80 80 81 79 78
53 53 53 52 52 52 59 63 71 70 70 60 62 75 73 75 74 72 72 72 70 71 69 70 74 78 71 66 66 75 78 79 77 64 72 65 77 80 81 80 80 79 78 77
52 52 52 52 52 55 59 54 60 56 65 61 61 66 73 75 73 73 72 73 72 71 70 68 70 73 72 68 62 68 73 73 75 77 77 74 77 75 80 81 81 75 77 73
52 52 52 52 52 52 57 64 56 57 62 65 59 60 66 75 68 66 75 70 71 70 69 71 69 72 70 62 70 74 75 75 74 76 78 78 80 79 67 70 81 72 75 72
52 52 52 56 57 59 63 57 57 66 61 57 63 55 51 74 70 70 71 73 64 73 66 67 70 66 61 68 69 72 73 72 72 75 76 76 75 77 77 79 78 76 73 73
51 54 54 52 61 57 58 59 59 59 63 63 58 68 53 66 69 66 65 66 64 57 67 73 66 64 72 75 76 74 74 73 74 70 69 72 73 73 72 76 78 76 70 74
58 54 52 64 57 61 62 52 54 57 57 64 66 67 66 74 61 57 58 58 62 54 61 61 58 61 66 75 72 73 74 74 74 74 74 75 75 70 69 76 77 78 71 68
53 52 59 62 58 54 48 49 57 58 54 64 63 66 70 69 71 58 54 56 55 50 68 58 57 60 65 70 69 70 71 71 71 73 73 75 75 76 76 71 75 77 77 65
62 56 54 53 54 38 46 46 54 55 60 64 64 62 66 67 69 59 57 52 55 69 56 57 55 60 65 66 69 69 70 70 69 69 69 71 75 77 75 75 75 79 75 68
52 50 36 47 48 55 58 57 57 63 61 59 61 59 61 59 58 60 53 61 63 53 51 50 54 59 62 66 69 68 65 68 68 68 69 69 68 73 75 76 77 73 74 72
51 57 40 52 61 65 64 65 65 66 64 61 61 62 62 60 56 58 57 54 51 54 50 54 59 61 62 63 64 63 63 64 64 65 66 66 66 69 72 72 77 76 75 69
56 57 55 60 59 62 63 64 58 64 64 66 66 57 55 54 55 53 52 53 49 48 53 59 61 60 61 61 62 62 62 61 61 61 62 64 64 65 69 73 75 74 72 71
53 55 62 61 60 62 60 59 63 64 64 56 57 50 50 61 54 52 59 51 55 60 62 61 59 57 56 56 57 58 58 56 59 58 57 61 65 67 65 63 58 65 62 67

GFSNW_sfc_temp_030.txt.gz
Temp
55 55 55 54 53 52 48 44 51 68 68 52 47 48 57 62 68 71 68 70 68 67 69 64 63 66 72 80 81 70 69 60 57 64 76 77 68 64 58 52 52 50 50 52
55 55 55 54 53 52 44 43 50 66 66 46 45 53 62 65 65 66 66 67 69 68 65 61 66 69 78 79 75 70 68 56 52 60 65 70 65 66 60 55 51 52 49 51
55 55 55 54 53 53 43 44 48 56 57 52 49 48 56 59 72 70 71 69 69 65 63 64 62 68 76 78 76 70 68 56 57 53 57 62 61 68 68 58 52 52 54 55
55 55 55 54 54 53 46 46 51 52 47 52 52 51 57 57 58 69 69 63 65 61 54 59 59 65 68 74 72 70 65 57 58 60 67 67 66 68 69 63 61 57 65 59
55 55 55 54 53 52 48 47 48 51 49 54 55 52 55 60 63 63 66 65 69 62 55 56 57 60 59 58 66 63 61 57 56 58 70 68 66 70 69 68 68 63 60 59
55 56 55 54 53 50 44 49 51 50 49 51 52 57 61 64 64 67 68 67 62 60 63 65 65 62 62 59 58 59 57 56 53 50 64 63 57 65 66 65 64 61 57 61
55 56 55 55 53 51 41 44 45 45 46 50 52 60 63 67 65 63 67 65 60 66 71 70 67 64 67 67 63 63 59 55 54 51 57 44 61 71 68 62 61 62 62 61
55 55 56 55 54 53 42 45 46 44 41 51 56 59 60 63 60 63 64 68 67 66 65 57 53 54 56 62 64 62 64 54 50 48 45 55 64 70 66 61 55 60 60 63
55 55 56 55 54 53 43 44 47 45 41 47 56 54 56 50 50 56 62 68 67 66 56 53 44 45 51 53 58 58 60 56 53 47 45 45 58 70 72 67 51 62 63 62
54 55 55 55 55 53 45 42 47 45 40 48 52 50 50 55 52 52 54 59 62 62 50 48 47 48 56 50 50 50 50 49 50 46 45 52 64 72 70 52 55 63 64 64
54 54 55 55 55 54 48 44 47 47 41 45 55 58 50 53 52 49 55 56 55 55 50 48 48 48 52 50 53 52 52 48 46 45 44 45 67 66 58 58 59 62 64 63
54 54 54 54 54 54 52 41 50 53 45 47 54 60 61 60 60 54 51 50 49 53 52 51 50 51 52 48 47 55 50 55 52 52 50 57 58 58 59 62 61 63 63 65
54 54 54 54 54 53 51 40 43 45 43 47 48 53 61 58 61 62 52 51 55 53 56 50 52 52 54 46 48 51 56 58 52 53 55 55 58 62 63 64 64 65 66 66
54 54 54 54 53 53 52 40 43 42 42 39 48 63 59 65 63 62 59 59 57 56 54 51 49 50 54 50 53 52 56 57 53 51 55 57 60 61 62 66 67 66 67 67
53 53 53 53 53 52 49 42 45 47 44 39 43 54 59 61 62 60 57 56 52 51 50 49 50 52 52 51 50 50 53 54 50 49 56 56 58 60 64 64 67 67 66 64
53 53 52 52 52 51 42 43 48 48 45 43 39 52 56 57 59 56 52 52 51 50 48 49 51 56 54 47 46 56 56 58 58 57 59 60 61 64 65 64 66 66 65 65
52 52 52 51 51 43 39 43 48 50 45 43 40 44 55 60 55 53 52 52 51 50 47 47 49 51 53 46 47 57 58 62 62 62 63 61 64 60 65 67 66 66 65 65
52 52 51 51 51 48 43 46 51 49 43 44 39 44 54 55 50 48 51 50 48 49 50 48 48 49 49 45 53 57 61 62 62 63 64 64 61 63 63 64 64 62 61 61
52 52 51 45 43 42 47 58 55 48 46 40 42 41 41 53 50 50 50 50 45 50 48 47 49 45 45 50 56 59 61 60 59 61 62 63 62 61 62 63 63 59 60 61
51 45 44 42 47 58 55 48 45 44 44 42 39 45 43 48 47 49 48 46 45 42 48 51 47 44 50 53 55 56 58 60 61 58 56 58 57 59 61 59 61 62 61 60
40 44 44 47 56 48 45 42 41 42 41 42 43 46 44 50 45 43 47 43 44 41 46 50 43 42 49 54 55 56 57 58 57 58 57 57 56 56 57 59 62 62 63 61
44 43 45 44 45 42 39 39 44 43 42 47 46 50 49 50 50 45 46 43 44 40 48 45 41 44 49 53 56 57 57 59 60 61 59 60 60 59 58 58 59 59 63 64
47 41 40 41 39 32 37 36 40 41 46 50 48 46 52 51 49 45 43 41 40 49 43 43 42 46 50 51 53 55 57 58 58 59 59 59 59 60 59 58 59 60 60 61
41 43 30 35 33 38 41 41 43 48 48 47 47 47 46 46 45 45 43 46 47 42 39 40 44 49 50 53 54 53 52 54 55 56 57 57 57 56 57 58 58 57 57 59
42 43 30 38 44 45 47 47 46 49 48 48 48 48 47 44 44 45 45 45 43 42 39 46 46 48 48 49 50 50 50 50 50 52 53 54 55 54 54 56 56 56 56 57
45 42 40 45 43 42 46 48 47 47 48 50 51 49 43 43 44 44 44 44 41 43 44 46 47 47 47 47 47 48 49 49 49 50 51 52 51 52 51 53 54 54 54 55
45 42 49 44 43 46 45 45 45 48 47 43 44 42 42 45 43 42 43 40 42 48 50 50 47 46 46 47 47 48 49 50 53 54 52 54 56 56 52 50 52 52 52 52

GFSNW_sfc_temp_033.txt.gz
Temp
55 55 54 54 53 52 46 45 50 61 61 51 41 46 52 59 63 65 64 62 62 62 63 59 59 62 70 75 72 66 65 57 53 62 69 71 66 60 56 51 49 46 47 51
55 55 54 54 53 52 44 44 45 60 62 45 43 48 57 61 60 62 61 62 65 65 61 56 63 65 74 73 72 66 65 54 50 57 62 66 65 62 56 51 49 47 48 52
55 55 54 54 53 52 43 46 49 53 53 48 49 46 51 56 67 65 66 64 63 61 59 61 59 65 73 74 69 67 66 52 56 54 57 61 60 64 63 56 49 49 52 55
55 55 55 54 53 52 47 47 47 49 46 50 50 49 52 53 55 63 64 57 62 59 51 56 56 61 65 71 67 64 62 55 54 57 65 66 64 64 65 58 56 54 56 55
55 55 55 54 53 52 47 46 46 50 46 48 50 49 50 55 58 57 60 57 62 59 54 56 53 56 57 56 65 59 58 55 55 55 65 66 64 67 66 64 62 59 57 54
55 56 55 54 52 48 43 45 49 49 47 46 46 49 53 56 59 63 65 63 59 59 61 64 61 59 59 56 54 58 56 54 52 50 59 62 56 61 61 60 58 55 54 56
55 55 55 55 53 50 41 41 43 46 46 47 49 55 60 59 58 59 66 63 56 64 67 64 60 57 58 65 61 58 56 52 50 48 52 45 59 65 66 59 59 59 57 57
54 55 55 55 54 52 40 41 43 43 41 48 52 54 55 59 56 59 63 64 62 60 62 56 53 54 59 62 63 60 57 51 46 47 44 53 58 64 63 59 56 60 58 60
54 55 55 55 54 52 41 41 43 42 41 47 54 52 53 47 49 53 60 65 61 60 53 52 43 45 51 53 59 57 55 53 51 45 44 44 56 66 67 65 52 61 60 60
54 54 55 55 55 53 44 41 43 43 40 45 50 50 50 51 48 46 52 57 57 59 51 48 45 47 55 51 50 47 47 46 47 44 44 51 60 66 67 51 53 61 62 61
54 54 54 55 54 54 47 42 43 43 39 43 51 57 52 52 48 44 51 54 55 53 49 49 47 47 50 47 50 48 50 45 44 42 42 45 62 63 58 57 57 60 61 61
54 54 54 54 54 54 50 38 45 46 41 45 51 57 60 59 58 51 48 50 48 52 50 47 46 48 47 44 45 52 49 52 48 49 48 54 57 57 58 58 61 62 61 62
53 54 54 54 53 53 50 39 39 41 39 43 47 52 57 54 56 58 50 49 52 52 52 48 47 48 48 43 46 48 52 54 49 50 53 54 57 61 62 63 61 65 64 63
53 54 54 53 53 52 52 39 39 40 39 36 46 59 55 61 58 59 56 56 53 54 53 50 48 48 52 47 49 48 52 54 50 51 53 55 58 59 61 64 65 65 66 65
53 53 53 53 52 52 48 40 41 43 41 37 40 49 54 55 59 59 54 52 49 50 50 48 47 48 50 49 48 48 51 52 49 48 54 54 56 60 63 64 64 65 64 63
53 53 52 52 52 51 40 42 44 45 43 39 37 47 51 55 56 56 50 49 47 46 47 47 47 50 50 45 45 54 55 55 55 55 56 57 61 62 63 64 65 66 65 64
52 52 51 51 51 42 38 42 46 48 43 41 39 41 51 54 52 50 50 48 47 48 44 45 46 49 49 43 44 55 57 56 57 60 61 58 59 58 63 65 66 64 64 63
52 51 51 51 51 47 43 44 50 47 42 42 37 41 47 52 48 47 46 46 45 47 46 45 45 46 45 43 49 52 59 59 59 59 60 60 58 61 61 62 64 62 61 61
52 51 51 44 41 40 45 57 53 45 44 39 39 38 39 51 46 46 47 45 43 46 44 44 47 41 41 47 51 52 56 58 58 58 59 60 59 58 60 62 61 58 59 59
51 43 41 40 44 55 54 47 43 42 41 40 37 41 41 47 44 44 44 43 41 41 45 47 43 42 45 48 50 51 53 57 57 56 54 54 54 56 55 56 59 59 58 60
39 39 43 46 52 46 42 39 38 39 39 39 41 42 43 48 44 42 44 41 41 39 44 45 40 39 46 50 51 52 54 55 55 55 54 54 53 54 54 55 56 57 58 59
42 42 43 41 43 39 37 36 40 39 40 44 43 45 46 46 48 43 43 41 42 39 45 43 38 43 47 49 51 52 53 55 56 57 56 56 57 56 55 54 55 56 56 57
42 40 38 39 38 29 35 34 36 37 44 46 46 45 46 46 48 44 42 41 39 45 41 40 42 45 48 48 51 52 52 54 54 55 56 56 55 56 55 55 56 56 56 57
40 41 30 34 30 35 37 38 39 45 45 45 45 44 44 43 43 43 42 43 44 39 37 39 46 47 48 50 50 51 50 51 51 52 53 54 54 54 55 55 55 54 55 56
40 43 35 36 41 42 43 43 43 46 47 45 44 44 44 42 43 42 42 41 39 41 40 45 48 49 47 47 48 48 48 48 48 49 49 50 52 51 51 53 53 53 54 54
41 39 37 44 42 42 41 43 44 47 46 45 45 47 41 41 41 41 41 41 39 39 42 43 44 45 46 45 46 46 47 47 47 48 48 49 49 49 49 50 50 52 53 52
42 40 42 41 40 41 43 44 45 47 47 42 45 41 40 42 40 39 41 40 42 43 45 45 45 44 44 45 45 47 47 47 47 49 51 53 54 55 52 49 50 50 50 54

GFSNW_sfc_temp_036.txt.gz
Temp
55 55 54 54 53 52 45 45 49 58 57 50 39 45 49 57 59 61 60 59 59 58 59 56 56 61 65 71 68 65 63 57 54 61 66 68 63 59 55 50 47 43 46 51
55 55 54 54 52 51 44 44 44 57 58 44 42 46 53 57 57 58 57 58 63 60 56 53 59 62 70 69 68 64 63 52 49 56 59 63 63 59 53 50 48 45 47 52
55 55 54 54 53 52 43 46 47 51 50 45 45 44 49 52 63 61 62 60 59 56 54 54 56 60 68 69 65 67 67 51 53 51 57 60 58 61 59 54 50 48 50 56
55 55 55 54 53 52 45 45 43 45 45 46 44 46 50 51 52 58 58 54 59 56 49 53 55 59 63 68 65 61 61 56 52 55 62 63 64 63 62 57 55 55 56 55
55 55 55 54 52 51 45 44 44 45 43 46 47 45 49 53 54 54 55 54 61 59 56 58 54 55 54 56 63 57 56 52 55 54 63 65 64 64 63 62 60 58 57 57
55 55 55 54 52 48 41 41 44 45 46 47 48 48 53 54 53 60 62 62 56 56 60 61 58 58 57 58 57 59 57 54 53 49 58 61 56 58 59 57 57 57 55 59
55 55 55 54 53 49 44 39 40 42 43 47 50 54 56 57 55 54 62 59 54 59 65 62 58 57 56 60 58 57 54 51 49 49 51 45 57 62 64 61 59 58 57 58
55 55 55 55 53 52 40 39 40 40 40 48 53 54 55 57 54 54 58 62 59 56 57 54 52 51 56 58 56 55 55 51 47 48 44 51 59 62 60 59 58 60 58 60
54 55 55 55 54 52 41 40 40 40 39 46 53 51 53 48 48 52 56 61 59 56 51 50 42 45 48 50 52 54 56 54 52 45 45 45 56 64 67 64 52 61 60 60
54 55 55 55 54 52 42 40 40 40 37 43 47 49 50 50 47 47 49 54 55 54 47 45 44 46 51 49 47 47 48 47 48 46 46 52 59 64 65 52 54 60 61 60
54 54 54 54 54 54 44 40 41 41 36 41 49 55 52 51 46 45 51 52 53 52 47 46 45 47 49 48 47 46 49 48 47 45 43 45 58 61 57 58 57 60 61 62
54 54 54 54 54 53 48 38 42 43 39 43 47 54 59 58 56 50 48 50 50 51 48 45 45 46 45 42 44 50 48 50 48 50 49 53 56 56 59 58 60 61 61 62
53 54 54 54 53 53 49 38 37 39 38 41 44 50 55 53 54 57 50 50 52 53 53 47 45 45 45 43 44 46 51 51 49 49 52 54 56 58 61 62 62 65 65 63
53 53 53 53 53 52 51 39 38 39 37 35 45 56 52 58 54 56 56 56 52 50 51 47 45 46 48 44 47 47 51 51 50 52 53 55 58 59 60 62 65 65 66 66
53 53 53 53 52 52 45 39 39 41 40 36 39 47 52 54 55 57 52 52 49 49 49 49 49 46 48 45 46 48 51 51 48 48 53 53 55 59 62 63 64 65 64 64
53 52 52 52 52 50 40 41 42 43 42 37 36 45 48 52 54 54 51 49 47 45 46 46 45 47 49 45 44 53 54 54 54 54 56 56 61 62 64 64 66 67 65 64
52 52 51 51 51 40 39 41 44 45 42 39 37 40 48 51 48 49 49 46 46 47 43 43 43 46 46 43 44 54 57 57 58 58 59 58 61 60 64 66 66 64 64 63
52 51 51 51 51 47 41 44 49 46 40 40 36 39 45 48 46 45 44 45 45 46 44 43 43 43 42 42 49 51 56 58 59 60 60 59 59 61 62 63 63 62 61 61
51 51 51 43 41 40 44 55 51 43 43 38 37 36 39 49 43 43 44 43 42 44 43 43 46 39 40 44 46 50 54 56 57 57 58 59 58 58 61 62 62 60 59 60
50 43 41 39 43 54 53 44 41 41 40 38 35 38 39 44 42 42 43 41 40 40 43 45 42 40 43 46 47 47 50 53 56 54 53 54 54 57 58 58 59 59 58 59
40 38 40 46 50 44 41 38 37 37 36 37 38 38 40 46 42 41 42 40 40 38 42 43 38 39 44 48 49 50 51 53 53 54 53 54 54 54 54 55 56 57 58 58
41 40 41 40 41 38 36 34 37 37 37 41 40 41 43 43 45 42 41 41 41 38 43 42 37 42 46 47 50 50 51 54 54 55 55 56 56 56 55 55 56 56 56 57
41 39 37 38 36 28 32 33 34 35 40 43 43 43 44 45 46 42 41 41 39 44 40 40 43 45 47 47 49 51 52 52 53 54 55 56 56 57 56 55 56 56 56 57
39 37 27 33 30 33 35 36 37 42 43 43 43 42 43 44 44 44 41 42 43 39 36 38 46 49 50 48 49 49 49 50 50 50 52 52 52 53 55 55 55 54 54 56
38 43 35 34 39 38 39 40 40 44 46 45 45 44 43 42 43 41 42 40 38 39 38 46 48 50 49 47 47 47 47 47 47 49 49 50 51 51 51 53 53 53 54 54
39 39 35 40 38 38 39 39 40 44 46 45 45 43 42 40 40 41 40 40 38 39 41 44 45 46 46 45 46 46 47 47 47 47 48 49 49 51 51 51 51 52 52 52
41 36 39 38 37 37 40 41 42 46 44 42 43 41 40 42 39 38 40 39 40 43 44 45 45 44 44 45 45 46 47 47 47 48 51 50 53 55 53 51 51 51 51 52

GFSNW_sfc_temp_042.txt.gz
Temp
55 55 55 54 53 52 55 77 72 80 80 72 75 70 71 59 76 79 77 77 76 75 76 76 77 79 84 89 92 82 88 83 75 80 87 87 87 84 84 76 69 76 74 76
55 55 55 54 52 51 68 75 76 81 79 67 68 70 71 72 73 75 76 75 77 79 76 71 77 79 85 86 88 84 87 79 71 74 82 84 81 84 85 83 80 72 71 75
55 55 55 54 53 52 62 73 68 74 77 77 70 66 68 68 75 74 77 76 78 77 75 79 75 79 83 84 87 70 81 81 74 74 77 84 76 79 82 83 75 76 78 79
55 55 55 54 53 52 63 75 68 68 68 70 71 69 67 66 67 75 75 74 75 75 71 76 75 80 82 82 72 81 85 73 79 82 83 82 82 81 79 78 81 76 79 80
55 55 55 54 53 51 72 70 69 73 71 66 68 59 67 66 70 70 71 70 77 77 72 76 74 79 79 80 82 81 84 75 80 77 83 83 79 82 81 81 82 82 83 80
55 55 55 54 52 55 72 71 71 68 58 68 68 69 67 66 69 73 77 75 74 73 77 83 83 84 81 80 78 78 78 78 73 71 80 79 73 80 81 83 85 84 78 80
55 55 55 54 52 53 70 65 67 68 68 70 71 67 68 67 69 68 75 76 73 75 81 82 83 85 82 81 79 82 75 73 76 74 74 62 77 86 88 84 84 85 82 80
55 55 55 55 53 52 66 66 66 67 68 71 68 67 68 71 71 69 70 75 77 79 76 74 70 73 73 77 79 78 81 77 72 68 69 73 74 78 79 80 79 85 83 81
55 55 55 55 53 52 67 64 65 67 64 69 66 67 68 68 70 71 71 77 78 77 77 74 63 65 70 69 73 80 79 76 76 71 66 62 77 80 84 84 73 83 82 82
54 55 55 55 55 52 62 64 62 65 64 72 66 68 66 70 69 69 70 67 71 77 75 70 69 70 73 68 68 69 74 75 72 71 70 71 80 81 85 69 71 81 82 81
54 54 55 55 54 54 59 64 62 62 65 69 67 69 67 70 71 65 68 67 68 74 68 69 72 70 72 71 68 69 71 70 71 73 68 63 77 79 75 73 78 81 82 81
54 54 54 54 54 54 55 67 67 65 60 68 68 71 72 70 71 67 69 64 61 65 68 71 70 70 70 68 65 71 67 70 72 70 70 71 76 74 75 76 75 78 81 82
53 54 54 54 53 53 53 62 62 64 63 69 70 71 72 75 73 77 66 69 63 65 66 68 68 63 71 68 70 70 71 73 76 71 73 74 73 76 76 77 77 80 82 82
53 53 54 53 53 52 52 63 64 62 64 62 67 76 72 74 76 72 73 67 65 64 67 68 68 67 71 72 70 72 75 73 70 71 73 73 74 75 76 77 79 80 82 82
53 53 53 53 52 52 58 66 67 66 59 61 69 73 73 77 73 72 72 68 62 64 64 66 65 69 70 76 75 75 79 72 72 72 71 73 73 74 76 78 78 80 79 78
53 53 52 52 52 52 63 61 65 69 64 61 64 72 70 73 73 72 70 71 67 67 63 65 68 66 66 68 69 72 75 75 77 73 75 73 75 75 76 78 79 80 80 79
53 52 52 52 51 57 60 59 60 54 64 61 63 67 71 71 72 76 76 71 71 69 65 66 68 70 66 70 66 73 75 76 75 76 76 73 75 74 77 79 78 76 80 80
52 52 52 51 51 52 59 65 55 57 61 63 59 65 66 71 70 68 75 72 72 68 68 68 67 70 71 64 69 70 72 73 74 75 77 77 79 79 77 78 79 76 76 77
52 52 52 57 57 61 62 53 54 65 61 59 63 61 60 72 72 73 70 71 64 70 66 67 67 66 61 64 64 67 69 68 70 74 75 76 76 76 77 77 75 68 71 69
51 55 57 56 61 52 55 57 59 61 63 62 60 69 62 69 68 66 68 69 66 60 66 70 63 64 66 67 67 67 68 70 72 70 71 73 73 73 74 74 76 77 77 78
58 57 58 62 53 61 61 55 55 59 55 62 65 64 64 70 61 63 69 63 67 57 61 61 61 61 63 64 66 69 71 72 73 72 73 74 74 74 74 73 74 75 74 73
55 57 57 62 59 57 51 52 57 54 56 62 61 65 66 68 69 59 63 58 63 52 65 60 57 58 62 65 66 67 70 70 70 71 71 72 72 73 73 74 74 74 74 74
59 56 53 55 52 39 45 45 52 54 59 63 63 60 66 65 63 61 59 53 55 67 56 57 57 58 62 64 67 66 69 69 70 70 71 72 71 73 72 72 74 74 73 73
54 49 36 46 45 51 56 59 60 61 64 65 62 64 61 63 56 61 52 62 62 52 50 51 58 60 61 64 66 67 66 67 68 68 69 69 70 70 71 72 72 71 70 71
50 51 40 48 59 61 64 65 62 64 66 64 60 61 62 60 57 59 58 52 50 55 54 58 61 60 59 57 58 62 65 66 66 67 68 68 68 67 68 70 71 70 70 69
53 52 51 57 56 58 60 62 62 68 67 66 63 58 56 55 59 53 52 51 50 53 60 62 58 56 58 60 63 65 64 64 64 66 66 66 67 66 66 69 69 68 67 65
50 53 59 60 60 61 63 64 64 66 63 54 59 52 52 62 54 52 58 54 57 60 60 61 61 61 61 62 63 63 61 59 59 59 60 62 64 65 65 62 61 62 60 59

GFSNW_sfc_temp_045.txt.gz
Temp
56 55 55 55 53 52 54 82 76 88 90 75 79 75 81 60 81 85 84 82 82 81 83 81 83 83 88 96 95 87 92 86 78 83 93 95 93 88 87 78 73 80 77 70
56 55 55 54 53 52 69 79 82 89 87 72 76 80 77 79 80 81 81 80 84 84 80 75 82 85 92 92 92 88 91 82 74 77 87 90 85 89 89 88 84 74 72 73
56 56 55 55 54 53 63 78 73 79 81 84 76 76 73 74 82 81 83 81 84 80 78 82 79 83 88 91 92 74 85 84 77 75 79 87 81 85 88 85 78 78 78 78
56 56 55 55 54 53 64 80 77 78 72 76 77 76 75 73 73 80 82 78 79 78 74 77 78 84 87 89 78 87 88 75 81 84 87 88 86 84 85 82 84 79 67 73
56 56 55 55 54 52 72 73 75 81 81 73 73 64 72 72 76 77 75 74 80 82 75 78 77 82 84 83 89 85 89 76 80 79 86 87 82 86 86 86 87 85 84 74
56 56 56 55 53 54 81 82 81 77 66 74 73 75 73 73 76 78 80 81 79 78 81 86 88 89 87 86 82 82 82 79 76 72 83 83 76 83 85 86 88 88 80 82
56 56 56 55 53 52 74 75 75 74 72 76 77 74 74 73 74 73 81 81 76 83 87 88 88 88 88 87 86 88 79 76 78 74 77 65 83 93 92 87 88 91 87 85
55 56 56 55 54 53 73 77 75 75 72 79 75 74 74 76 76 74 76 80 84 85 81 75 72 75 76 80 86 84 86 80 75 71 72 77 81 86 87 85 82 91 87 86
55 55 56 56 55 53 67 73 74 74 72 73 74 73 74 73 75 76 78 83 85 83 79 75 64 65 71 71 77 86 85 81 77 75 67 63 79 90 95 93 76 89 89 87
55 55 56 56 55 54 61 74 72 73 71 77 74 72 70 76 75 74 76 75 78 83 76 73 71 71 78 70 70 72 75 75 72 73 71 75 76 88 91 72 73 87 89 88
55 55 55 55 55 55 59 72 72 70 72 76 75 76 71 75 75 70 73 75 76 78 71 73 73 72 76 75 71 72 73 71 72 75 68 60 85 84 77 78 84 88 87 87
54 55 55 55 55 54 55 73 77 75 69 73 77 78 79 76 75 72 75 71 70 73 73 74 75 70 76 71 68 77 71 73 68 70 66 75 81 78 81 83 83 86 85 87
54 54 55 55 54 54 54 70 71 73 71 76 77 76 79 84 82 85 70 76 71 73 74 74 72 58 75 67 72 75 76 79 79 73 77 77 81 82 84 84 84 87 88 87
54 54 54 54 54 53 53 70 72 72 71 67 72 83 77 82 84 80 80 75 76 74 77 75 71 65 77 69 72 76 78 79 76 75 78 80 80 81 82 83 84 86 87 87
54 54 54 54 53 53 59 72 74 74 66 66 73 79 81 84 80 78 79 77 72 76 73 71 68 68 71 77 79 76 83 75 75 66 77 78 76 79 82 82 83 85 85 84
54 54 54 53 53 53 66 64 73 76 72 66 68 78 75 79 79 77 76 79 77 77 73 70 72 74 67 66 66 75 82 82 83 77 80 79 80 80 83 82 85 85 85 84
54 53 53 52 52 60 63 60 63 57 70 67 68 70 77 78 78 79 79 77 80 77 76 68 66 64 69 66 62 69 77 81 79 81 81 77 80 77 81 81 82 80 85 84
53 53 52 52 52 54 62 67 57 58 68 71 64 70 71 78 73 72 80 75 76 74 74 69 66 65 64 59 65 72 60 76 78 79 82 81 80 77 79 80 77 67 66 74
53 53 52 60 61 67 66 56 55 69 67 64 69 65 61 78 74 79 77 76 68 76 69 67 68 61 56 67 68 70 72 71 73 75 77 79 79 74 76 78 73 66 68 70
53 57 63 62 68 53 57 62 64 64 68 68 64 76 68 76 72 70 71 74 68 64 70 74 63 64 73 74 72 72 73 74 75 73 73 76 77 78 79 77 80 68 73 72
60 62 66 67 55 66 66 60 59 64 60 68 69 71 68 77 65 64 68 65 64 60 66 65 63 63 68 71 70 73 75 77 78 76 78 79 78 77 78 78 79 80 78 78
58 62 63 70 65 63 55 55 62 60 60 68 66 69 72 73 75 69 67 63 63 56 64 64 59 59 68 71 71 71 74 75 74 76 75 76 76 77 77 78 78 79 79 79
65 62 60 63 59 43 48 48 56 59 65 67 67 65 70 71 72 67 63 55 57 69 58 59 58 63 68 68 71 71 73 73 73 74 75 76 75 77 74 75 77 77 77 77
60 54 37 51 50 56 60 62 66 67 72 68 70 70 66 71 62 64 54 64 64 52 54 56 61 61 62 65 68 68 69 71 72 72 73 73 73 74 75 77 77 75 74 74
56 58 42 53 63 68 72 71 69 69 74 70 68 68 70 64 61 64 61 53 52 55 54 57 59 61 62 65 67 68 69 70 70 72 72 72 73 72 72 74 75 75 74 73
58 57 56 64 60 63 66 67 67 72 72 71 69 63 61 59 61 56 55 54 52 54 57 60 63 63 64 65 68 68 68 68 68 69 69 69 71 71 70 72 73 70 67 66
55 57 64 65 65 64 68 71 71 73 66 57 64 54 55 64 58 55 64 57 57 59 58 61 63 64 65 66 67 67 65 64 63 63 63 65 68 71 69 66 65 68 68 66

GFSNW_sfc_temp_048.txt.gz
Temp
56 56 55 55 54 52 56 78 73 91 93 73 76 72 79 76 87 88 84 84 82 81 84 82 83 83 89 97 96 87 91 85 76 81 93 95 91 86 85 74 71 77 75 71
56 56 55 55 53 53 64 72 82 90 89 69 74 79 81 85 83 83 82 80 84 86 81 75 82 85 93 95 93 85 90 81 72 75 85 91 85 88 88 85 81 72 63 71
56 56 55 55 54 53 58 73 73 80 81 81 75 75 77 77 84 82 84 83 85 82 79 83 78 82 91 92 92 78 84 82 76 71 76 85 79 84 87 84 75 76 75 68
56 56 56 55 55 54 58 75 75 80 71 75 76 78 78 76 75 82 83 78 80 78 73 76 77 83 86 91 83 88 86 74 79 82 85 86 84 83 85 81 82 76 75 69
56 56 56 55 54 52 67 72 73 77 78 77 76 68 72 73 77 78 76 74 79 80 74 76 75 81 82 81 88 85 87 74 78 75 83 84 82 82 67 82 86 84 84 69
56 56 56 55 54 55 77 81 82 76 69 75 73 74 74 75 79 81 82 80 79 77 81 86 88 89 87 85 81 79 79 77 73 68 80 80 74 82 85 86 88 87 78 77
56 56 56 55 54 53 66 77 75 72 69 75 76 79 78 75 76 73 80 82 78 83 88 88 87 88 86 85 85 87 76 75 75 69 74 62 80 92 92 87 89 86 76 73
56 56 56 56 55 53 65 76 74 72 69 76 78 76 76 78 77 75 77 82 84 86 81 72 68 71 73 77 83 84 85 77 71 66 68 75 81 87 87 84 83 84 76 74
56 56 56 56 55 53 65 75 75 73 69 72 77 75 76 73 75 76 79 86 87 83 76 71 60 60 67 67 74 84 84 78 73 70 65 62 79 83 80 86 73 69 64 60
56 56 56 56 56 54 59 71 75 72 69 78 76 73 71 78 75 74 75 76 77 83 73 68 66 67 76 67 66 68 73 73 69 69 67 74 76 78 83 62 62 74 76 75
55 55 56 56 56 55 58 71 75 70 70 77 77 79 73 75 75 68 73 74 76 76 69 70 71 69 71 71 75 72 71 69 69 71 67 63 74 77 62 59 62 82 84 84
55 55 55 56 55 55 55 69 80 78 69 74 81 81 82 79 78 73 74 72 72 73 69 69 73 70 70 67 63 78 67 65 51 70 68 72 80 73 80 80 81 83 85 85
55 55 55 55 55 54 55 65 74 74 70 74 77 76 81 87 84 87 71 75 73 74 74 71 73 64 68 59 62 67 73 63 52 58 69 74 76 79 79 83 84 87 88 88
55 55 55 55 54 54 54 65 74 73 71 66 73 85 79 85 85 82 82 77 77 76 77 73 73 69 71 60 62 62 71 70 69 72 71 77 74 80 81 82 85 87 89 89
55 55 55 55 54 53 58 68 76 76 67 63 72 80 83 84 81 80 80 77 73 76 73 72 70 76 70 72 64 56 62 63 65 70 77 75 74 78 85 83 84 86 86 85
55 55 54 54 53 53 62 66 75 72 73 65 67 79 77 80 80 78 77 78 76 77 73 73 76 75 70 65 62 63 63 65 60 60 80 78 80 82 85 84 85 86 85 84
54 54 54 53 53 58 62 60 64 56 66 66 66 70 78 80 79 78 78 79 76 77 75 72 73 71 70 66 60 69 68 63 60 61 80 77 81 78 83 75 76 73 71 72
54 54 53 53 52 53 61 70 58 57 67 71 63 67 72 79 73 71 80 75 77 75 72 75 71 69 67 58 66 68 65 66 64 61 74 80 82 68 68 69 70 69 69 71
53 53 53 58 60 67 66 58 57 70 66 61 68 65 59 78 74 76 76 76 67 77 69 70 71 66 58 60 62 65 64 67 61 65 75 80 80 69 63 61 61 62 66 69
53 56 60 61 67 57 59 64 65 65 68 67 63 75 68 75 73 71 71 73 67 63 70 76 67 65 71 69 69 72 72 74 75 69 69 76 77 63 62 63 62 69 71 75
59 61 62 68 56 68 66 61 60 64 60 68 69 71 69 78 68 60 63 61 56 59 66 65 63 63 69 71 70 74 75 77 78 78 77 80 77 71 68 63 66 72 74 77
58 59 68 70 65 63 57 56 62 62 59 69 67 70 72 72 74 65 59 55 64 53 52 62 59 59 69 70 71 73 75 76 75 76 76 77 77 76 70 64 76 78 78 78
66 62 62 62 60 42 50 49 57 58 67 69 69 66 72 72 73 67 62 54 54 69 61 58 53 62 69 70 72 72 74 75 75 75 75 77 76 78 76 74 76 77 76 76
59 55 37 52 51 56 60 63 65 70 70 70 70 69 67 70 64 66 57 63 63 52 41 46 57 62 64 68 70 70 66 71 73 73 73 74 74 74 75 76 76 75 73 74
57 60 42 54 64 68 71 71 67 72 76 70 70 67 69 66 62 62 53 54 52 54 50 54 56 60 64 65 66 69 66 66 67 69 70 72 72 71 72 74 74 74 71 69
60 59 58 65 63 65 69 69 68 73 72 72 71 62 61 55 57 58 55 55 49 51 52 54 58 61 62 64 64 65 67 67 68 68 68 69 69 69 70 72 69 70 68 66
57 58 66 67 66 64 69 70 69 75 67 63 61 55 56 66 53 57 63 55 56 60 57 53 55 60 62 66 67 66 66 65 64 64 65 66 68 66 66 63 66 67 63 63